Location: Hilton Head Island
(32.2163°N, 80.7526°W)
Time: 01:42:13
(UTC-05:00)

Courier 1B Rocket - All Passes

Search period start: 18 February 2026 00:00
Search period end: 28 February 2026 00:00
Orbit: 920 x 1201 km, 28.2° (Epoch: 17 February)

Date Brightness Start Highest point End Pass type
(mag) Time Alt. Az. Time Alt. Az. Time Alt. Az.
18 Feb - 00:48:45 10° W 00:54:30 29° SSW 01:00:36 10° SE night (unlit)
18 Feb - 16:20:41 10° SSE 16:21:18 10° SSE 16:21:56 10° SE daylight
18 Feb - 18:08:34 10° SW 18:13:58 31° SSE 18:19:26 10° E daylight
18 Feb - 20:00:49 10° WSW 20:06:56 57° S 20:13:18 10° E visible
18 Feb - 21:53:52 10° W 22:00:09 59° S 22:06:50 10° ESE visible
18 Feb - 23:47:20 10° W 23:53:19 36° SSW 23:59:43 10° SE night (unlit)
19 Feb - 01:42:42 10° WSW 01:46:19 15° SSW 01:50:03 10° S night (unlit)
19 Feb - 17:08:09 10° SSW 17:12:58 23° SSE 17:17:46 10° ESE daylight
19 Feb - 18:59:50 10° WSW 19:05:48 49° SSE 19:11:55 10° E visible
19 Feb - 20:52:45 10° W 20:58:58 62° S 21:05:28 10° ESE visible
19 Feb - 22:46:03 10° W 22:52:09 44° SSW 22:58:38 10° SE night (unlit)
20 Feb - 00:40:22 10° WSW 00:45:10 20° SSW 00:50:11 10° SSE night (unlit)
20 Feb - 16:08:09 10° S 16:11:58 17° SSE 16:15:44 10° ESE daylight
20 Feb - 17:58:57 10° SW 18:04:44 40° SSE 18:10:33 10° E daylight
20 Feb - 19:51:40 10° WSW 19:57:48 61° S 20:04:08 10° E visible
20 Feb - 21:44:52 10° W 21:50:59 52° S 21:57:26 10° ESE visible
20 Feb - 23:38:38 10° WSW 23:44:01 27° SSW 23:49:43 10° SSE night (unlit)
21 Feb - 15:09:23 10° SSE 15:10:57 11° SSE 15:12:31 10° SE daylight
21 Feb - 16:58:11 10° SW 17:03:42 32° SSE 17:09:08 10° E daylight
21 Feb - 18:50:34 10° WSW 18:56:40 57° S 19:02:49 10° E visible
21 Feb - 20:43:42 10° W 20:49:50 58° S 20:56:12 10° ESE visible
21 Feb - 22:37:12 10° W 22:42:54 34° SSW 22:48:55 10° SE visible
22 Feb - 00:32:49 10° SW 00:35:48 13° SSW 00:38:53 10° S night (unlit)
22 Feb - 15:57:38 10° SSW 16:02:40 24° SSE 16:07:34 10° ESE daylight
22 Feb - 17:49:30 10° WSW 17:55:33 50° SSE 18:01:33 10° E daylight
22 Feb - 19:42:33 10° W 19:48:41 61° S 19:54:57 10° ESE visible
22 Feb - 21:35:55 10° W 21:41:48 43° SSW 21:47:57 10° SE visible
22 Feb - 23:30:20 10° WSW 23:34:42 19° SSW 23:39:15 10° SSE night (unlit)
23 Feb - 14:57:28 10° SSW 15:01:38 18° SSE 15:05:41 10° ESE daylight
23 Feb - 16:48:31 10° SW 16:54:29 41° SSE 17:00:17 10° E daylight
23 Feb - 18:41:23 10° WSW 18:47:33 61° S 18:53:43 10° E visible
23 Feb - 20:34:41 10° W 20:40:41 51° SSW 20:46:52 10° ESE visible
23 Feb - 22:28:33 10° WSW 22:33:38 25° SSW 22:38:56 10° SSE visible
24 Feb - 13:58:10 10° S 14:00:34 12° SSE 14:02:55 10° SE daylight
24 Feb - 15:47:38 10° SW 15:53:24 33° SSE 15:58:57 10° E daylight
24 Feb - 17:40:12 10° WSW 17:46:26 57° S 17:52:30 10° E daylight
24 Feb - 19:33:28 10° W 19:39:34 57° S 19:45:44 10° ESE visible
24 Feb - 21:27:04 10° W 21:32:34 33° SSW 21:38:16 10° SE visible
24 Feb - 23:23:04 10° SW 23:25:22 12° SSW 23:27:43 10° S night (unlit)
25 Feb - 14:46:58 10° SSW 14:52:20 25° SSE 14:57:28 10° ESE daylight
25 Feb - 16:39:03 10° WSW 16:45:18 51° SSE 16:51:19 10° E daylight
25 Feb - 18:32:14 10° W 18:38:26 61° S 18:44:35 10° ESE visible
25 Feb - 20:25:43 10° W 20:31:31 41° SSW 20:37:25 10° SE visible
25 Feb - 22:20:19 10° WSW 22:24:20 18° SSW 22:28:27 10° SSE visible
26 Feb - 13:46:37 10° SSW 13:51:14 19° SSE 13:55:40 10° ESE daylight
26 Feb - 15:37:56 10° SW 15:44:10 43° SSE 15:50:06 10° E daylight
26 Feb - 17:30:58 10° WSW 17:37:18 61° S 17:43:26 10° E daylight
26 Feb - 19:24:24 10° W 19:30:26 50° SSW 19:36:27 10° ESE visible
26 Feb - 21:18:25 10° WSW 21:23:19 24° SSW 21:28:18 10° SSE visible
27 Feb - 12:46:58 10° S 12:50:07 13° SSE 12:53:11 10° SE daylight
27 Feb - 14:36:56 10° SW 14:43:03 35° SSE 14:48:49 10° E daylight
27 Feb - 16:29:41 10° WSW 16:36:08 58° S 16:42:19 10° E daylight
27 Feb - 18:23:06 10° W 18:29:20 57° S 18:35:25 10° ESE daylight
27 Feb - 20:16:51 10° W 20:22:17 32° SSW 20:27:47 10° SE visible
27 Feb - 22:13:25 10° SW 22:15:00 11° SSW 22:16:36 10° SSW visible
